Погода в Штипе

Северная Македония     41°45′08″N   22°11′24″E
темп.,
°C
ветер,
м/с
пор.,
м/с
влажн.,
%
обл.,
%
осадки,
мм/ч
давл.,
гПа
погр.,
м
20 июня, вс
вс2023:00+15св119795 0.1 101512
02:00+15св11976 0.1 101413
05:00+14ссв11920 0.0 101411
08:00+19сз22745 0.0 1014329
11:00+26зсз364764 0.1 10121802
14:00+28ссз793756 0.1 10112708
17:00+28ссз693620 0.0 10102056
20:00+21с23590 0.0 101125
21 июня, пн
пн2123:00+18всв11730 0.0 101211
02:00+16всв11790 0.0 101311
05:00+16в118125 0.0 101211
08:00+22с115818 0.0 1013308
11:00+27з324569 0.0 1012901
14:00+30з353773 0.0 10101649
17:00+32ссв2533100 0.0 10081886
20:00+18с101890100 4.2 1015741
22 июня, вт
вт2223:00+17всв119188 3.8 101512
02:00+16всв22870 3.8 101412
05:00+15ссв22890 0.0 101311
08:00+20ссз22730 0.0 1014220
11:00+27сз22470 0.0 1013543
14:00+33сз23320 0.0 10111125
17:00+34сз23270 0.0 10111746
20:00+26вюв1147100 0.1 101111
23 июня, ср
ср2323:00+22юв336799 0.4 101438
02:00+20юв11710 0.4 101411
05:00+19всв11770 0.0 101411
08:00+24сз11640 0.0 1015248
11:00+30сз22430 0.0 1015697
14:00+36сз47235 0.0 10142980
17:00+35ссз66250 0.0 10132315
20:00+28в32460 0.0 101514
24 июня, чт
чт2423:00+25вюв22490 0.0 101711
02:00+23вюв11540 0.0 101711
05:00+21ссв11590 0.0 101711
08:00+27ссз22450 0.0 1017244
11:00+33зсз22325 0.0 1017728
14:00+38сз47160 0.0 10143371
17:00+37с56180 0.0 10131729
20:00+27з3446100 0.0 1016111